Location: Unspecified
(0.0000°N, 0.0000°E)
Time: 08:44:34
(UTC+02:00)

Cosmos 1892 Rocket - Visible Passes

Search period start: 02 September 2014 00:00
Search period end: 12 September 2014 00:00
Orbit: 608 x 635 km, 82.5° (Epoch: 01 September)

Date Brightness Start Highest point End Pass type
(mag) Time Alt. Az. Time Alt. Az. Time Alt. Az.
02 Sep 6.7 05:38:02 10° ESE 05:39:43 12° E 05:41:24 10° ENE visible
02 Sep 4.5 07:13:36 10° SW 07:17:20 26° W 07:21:05 10° NNW visible
03 Sep 5.6 05:54:01 10° SSE 05:57:49 27° E 06:01:36 10° NE visible
03 Sep 5.4 07:33:58 10° WSW 07:35:26 11° W 07:36:54 10° WNW visible
04 Sep 3.9 06:14:20 38° SSE 06:15:54 65° E 06:20:20 10° NNE visible
05 Sep 3.7 06:34:22 50° WNW 06:34:22 50° WNW 06:38:20 10° N visible
06 Sep 6.8 05:16:47 10° ENE 05:16:47 10° ENE 05:16:51 10° ENE visible
06 Sep 5.3 06:54:06 17° NW 06:54:06 17° NW 06:55:34 10° NW visible
07 Sep 6.5 05:36:19 11° NNE 05:36:19 11° NNE 05:36:33 10° NNE visible
